Terminal Aerodrome Forecast
Issued by NWS

Home | Current Version | Previous Version | Graphics & Text | Print | Product List | Glossary On
Versions: 1 2 3 4 5 6 7 8 9 10 11 12 13 14 15 16 17 18 19 20 21 22 23 24 25 26 27 28 29 30 31 32 33 34 35 36
000
FTUS43 KLOT 232200 AAB
TAFORD
TAF AMD
KORD 232207Z 2322/2424 24010KT P6SM SCT020 BKN150
     FM241000 29006KT P6SM BKN020
     FM241500 30012KT P6SM BKN015
     FM242300 27008KT P6SM BKN020=

USA.gov is the U.S. government's official web portal to all federal, state and local government web resources and services.